This demonstration page uses our WeatherBlox Daily Observations layout. Learn more.

Left ArrowRight Arrow

34.16533, -84.80231

Hourly Observations for November 19, 2020

Temp ( °F °C ) Dew Point ( °F °C ) Humidity (%) Winds ( mph kmh ) Pressure ( in mb ) Visibility ( mi km ) Precip ( " mm )
12:53 am 00:53 Clear 35 1.7 31 -0.6 85 85 E 3 6 30.53 1034 10 16 0.00 0.00
1:53 am 01:53 Clear 35 1.7 31 -0.6 85 85 Calm 30.53 1034 10 16 0.00 0.00
2:53 am 02:53 Clear 35 1.7 31 -0.6 85 85 Calm 30.53 1034 10 16 0.00 0.00
3:53 am 03:53 Clear 35 1.7 30 -1.1 82 82 Calm 30.54 1034 10 16 0.00 0.00
4:53 am 04:53 Clear 36 2.2 30 -1.1 79 79 Calm 30.55 1035 10 16 0.00 0.00
5:53 am 05:53 Clear 35 1.7 30 -1.1 82 82 Calm 30.58 1036 10 16 0.00 0.00
6:53 am 06:53 Clear 33 0.6 29 -1.7 85 85 Calm 30.58 1036 10 16 0.00 0.00
7:53 am 07:53 Sunny 35 1.7 31 -0.6 85 85 Calm 30.60 1036 10 16 0.00 0.00
8:53 am 08:53 Sunny 45 7.2 32 0 61 61 ESE 5 7 30.61 1037 10 16 0.00 0.00
9:53 am 09:53 Sunny 50 10 29 -1.7 44 44 SE 9 15 30.61 1037 10 16 0.00 0.00
10:53 am 10:53 Sunny 54 12.2 26 -3.3 34 34 SE 9 15 30.61 1037 10 16 0.00 0.00
11:53 am 11:53 Sunny 57 13.9 26 -3.3 30 30 E 9 15 30.59 1036 10 16 0.00 0.00
12:53 pm 12:53 Sunny 60 15.6 25 -3.9 26 26 E 7 11 30.55 1034 10 16 0.00 0.00
1:53 pm 13:53 Sunny 61 16.1 24 -4.4 24 24 VRB 7 11 30.51 1033 10 16 0.00 0.00
2:53 pm 14:53 Sunny 62 16.7 25 -3.9 24 24 ENE 7 11 30.48 1032 10 16 0.00 0.00
3:53 pm 15:53 Sunny 63 17.2 24 -4.4 23 23 E 7 11 30.47 1032 10 16 0.00 0.00
4:53 pm 16:53 Sunny 60 15.6 27 -2.8 28 28 SE 5 7 30.47 1032 10 16 0.00 0.00
5:53 pm 17:53 Clear 48 8.9 33 0.6 56 56 Calm 30.48 1032 10 16 0.00 0.00
6:53 pm 18:53 Clear 44 6.7 33 0.6 65 65 SE 3 6 30.49 1033 10 16 0.00 0.00
7:53 pm 19:53 Clear 42 5.6 33 0.6 71 71 SE 3 6 30.50 1033 10 16 0.00 0.00
8:53 pm 20:53 Clear 42 5.6 32 0 68 68 SE 6 9 30.49 1033 10 16 0.00 0.00
9:53 pm 21:53 Clear 48 8.9 29 -1.7 48 48 SE 3 6 30.49 1032 10 16 0.00 0.00
10:53 pm 22:53 Clear 47 8.3 29 -1.7 50 50 ENE 3 6 30.50 1033 10 16 0.00 0.00
11:53 pm 23:53 Clear 43 6.1 30 -1.1 60 60 E 3 6 30.50 1033 10 16 0.00 0.00

Powered by AerisWeather